Location: Terra Rouge Observatory
(46.0000°N, 62.7500°W)
Time: 13:06:43
(UTC-03:00)

Amateur Radio Satellites - All Passes

Search period start: 26 July 2016 12:36
Search period end: 27 July 2016 12:36
Location: Terra Rouge Observatory, 46.0000°N, 62.7500°W

Satellite Date Start Highest point End Downlink Frequencies (MHz)
Time Altitude Azimuth
NANOSAT C BR1 26 Jul 12:44:42 12:48:17 26° 265° (W) 12:51:55 145.865
VELOX 1 26 Jul 12:45:39 12:49:56 46° 99° (E) 12:54:13 145.980
SPROUT 26 Jul 12:49:20 12:52:57 25° 94° (E) 12:56:33 437.525
DUCHIFAT 1 26 Jul 12:49:36 12:53:07 25° 266° (W) 12:56:39 145.980
CUBEBUG 1 26 Jul 12:49:38 12:54:00 60° 101° (E) 12:58:21 437.445
JAS-2 26 Jul 12:55:26 13:01:30 76° 256° (WSW) 13:06:59 435.910
Cosmos 2504 26 Jul 12:57:49 13:06:10 44° 289° (WNW) 13:14:32 435.465 / 435.565
M-CUBED/EXP-1 PRIME 26 Jul 12:58:28 13:01:31 18° 305° (NW) 13:04:36 437.505
Oscar 19 26 Jul 13:00:04 13:04:46 38° 67° (ENE) 13:09:30 437.125/150
QB50P1 26 Jul 13:07:47 13:10:20 15° 270° (W) 13:12:55 145.935-145.965
BUGSAT 1 26 Jul 13:08:14 13:11:55 32° 264° (W) 13:15:41 437.445
POPSAT HIP 1 26 Jul 13:14:36 13:16:45 14° 271° (W) 13:18:55 437.405
AIST 1 26 Jul 13:26:07 13:29:46 28° 89° (E) 13:33:24
AUBIESAT-1 26 Jul 13:26:32 13:28:20 12° 309° (NW) 13:30:09 437.475
AISAT 26 Jul 13:30:21 13:34:45 59° 288° (WNW) 13:39:07 437.250
DX 1 26 Jul 13:33:42 13:38:05 77° 284° (WNW) 13:42:26 434.975-435.025
50 SAT 26 Jul 13:34:37 13:38:01 39° 289° (WNW) 13:41:23 437.505
RS-15 26 Jul 13:44:27 13:55:30 37° 21° (NNE) 14:06:38 29.354- 29.394
TISAT 1 26 Jul 13:48:33 13:52:09 26° 95° (E) 13:55:45 437.305
UKube-1 26 Jul 13:49:22 13:53:41 66° 287° (WNW) 13:57:58 .
ESTCUBE 1 26 Jul 14:01:58 14:05:14 20° 297° (WNW) 14:08:30 437.505/2401.250
AO-7 26 Jul 14:09:08 14:15:56 29° 51° (NE) 14:22:44 29.400- 29.500
Gurwin Techsat 1B 26 Jul 14:11:30 14:16:48 76° 73° (ENE) 14:22:09 435.225
Cosmos 2499 26 Jul 14:15:02 14:16:34 11° 69° (ENE) 14:18:05 435.465 / 435.565
AO-85 26 Jul 14:20:54 14:25:55 41° 118° (ESE) 14:30:44 145.980
VELOX 1 26 Jul 14:22:49 14:26:06 21° 297° (WNW) 14:29:24 145.980
SPROUT 26 Jul 14:25:02 14:28:57 33° 292° (WNW) 14:32:49 437.525
CUBEBUG 1 26 Jul 14:27:05 14:29:50 16° 299° (WNW) 14:32:35 437.445
ITAMSAT 1 26 Jul 14:31:59 14:36:53 42° 67° (ENE) 14:41:48 435.822/435.867
Oscar 19 26 Jul 14:39:42 14:44:10 30° 265° (W) 14:48:39 437.125/150
GONETS M04 26 Jul 14:43:39 14:50:18 25° 79° (E) 14:56:58
JAS-2 26 Jul 14:46:15 14:47:21 10° 273° (W) 14:48:27 435.910
CUSAT 1 26 Jul 14:51:32 14:54:11 34° 76° (ENE) 14:57:19 437.405
SWISSCUBE 26 Jul 14:56:19 15:00:30 30° 96° (E) 15:04:40 437.505
Cosmos 2504 26 Jul 15:01:22 15:02:22 10° 314° (NW) 15:03:22 435.465 / 435.565
AIST 1 26 Jul 15:03:42 15:07:19 27° 288° (WNW) 15:10:58
DANDE 26 Jul 15:06:43 15:07:52 12° 70° (ENE) 15:09:02 436.750
BEESAT 26 Jul 15:17:35 15:22:08 43° 99° (E) 15:26:39 436.000
TISAT 1 26 Jul 15:24:02 15:27:49 32° 292° (WNW) 15:31:36 437.305
SO-50 26 Jul 15:36:03 15:39:08 17° 30° (NNE) 15:42:08 436.795
ITUPSAT 1 26 Jul 15:39:57 15:44:44 69° 102° (ESE) 15:49:28 437.325
Gurwin Techsat 1B 26 Jul 15:54:12 15:57:21 16° 271° (W) 16:00:31 435.225
RS-15 26 Jul 15:57:59 16:10:24 76° 50° (NE) 16:22:42 29.354- 29.394
Cosmos 2499 26 Jul 15:59:10 16:07:43 54° 90° (E) 16:16:02 435.465 / 435.565
AO-7 26 Jul 15:59:32 16:07:55 80° 252° (WSW) 16:16:21 29.400- 29.500
AO-85 26 Jul 16:01:31 16:06:28 38° 315° (NW) 16:11:11 145.980
HORYU 2 26 Jul 16:04:33 16:07:47 20° 62° (ENE) 16:11:01 437.375
MOZHAYETS 4 26 Jul 16:07:15 16:10:34 19° 92° (E) 16:13:51
ITAMSAT 1 26 Jul 16:12:01 16:16:29 28° 265° (W) 16:20:58 435.822/435.867
STARS 26 Jul 16:21:51 16:23:42 12° 89° (E) 16:25:33 437.465
NOAA 15 26 Jul 16:31:00 16:32:36 11° 53° (NE) 16:34:12 137.62
SWISSCUBE 26 Jul 16:34:01 16:38:19 34° 293° (WNW) 16:42:35 437.505
NOAA 18 26 Jul 16:36:41 16:38:16 11° 51° (NE) 16:39:51 137.9125
GONETS M04 26 Jul 16:37:30 16:46:11 76° 280° (W) 16:54:58
DANDE 26 Jul 16:48:50 16:50:37 17° 266° (W) 16:52:27 436.750
BEESAT 26 Jul 16:55:50 16:59:42 25° 297° (WNW) 17:03:32 436.000
KKS-1 26 Jul 17:15:05 17:19:36 83° 104° (ESE) 17:24:06 437.445
SO-50 26 Jul 17:15:46 17:20:27 73° 51° (NE) 17:24:59 436.795
ITUPSAT 1 26 Jul 17:19:02 17:22:03 17° 301° (WNW) 17:25:01 437.325
GOMX 1 26 Jul 17:20:23 17:22:03 12° 58° (ENE) 17:23:44 467.674
Cubesat XI-IV 26 Jul 17:20:47 17:24:54 23° 60° (ENE) 17:29:02 437.490
CUBESAT XI-V 26 Jul 17:24:35 17:27:24 16° 90° (E) 17:30:12 437.345
HORYU 2 26 Jul 17:39:37 17:43:59 51° 260° (W) 17:48:24 437.375
MOZHAYETS 4 26 Jul 17:43:35 17:48:00 48° 289° (WNW) 17:52:23
CUTE-I 26 Jul 17:43:51 17:48:39 34° 65° (ENE) 17:53:28 437.470
AO-85 26 Jul 17:46:15 17:48:18 12° 337° (NNW) 17:50:18 145.980
BRITE-PL 26 Jul 17:49:20 17:53:19 47° 71° (ENE) 17:57:20 437.365/2234.400
Cosmos 2499 26 Jul 17:52:55 18:01:06 40° 290° (WNW) 18:09:06 435.465 / 435.565
STARS 26 Jul 17:56:07 18:00:35 74° 285° (WNW) 18:04:59 437.465
AO-7 26 Jul 17:56:43 18:01:57 18° 272° (W) 18:07:13 29.400- 29.500
NOAA 15 26 Jul 18:06:13 18:11:25 68° 72° (ENE) 18:16:38 137.62
LilacSat-2 26 Jul 18:08:12 18:11:53 42° 71° (ENE) 18:15:35 437.200
RS-15 26 Jul 18:11:15 18:22:00 38° 254° (WSW) 18:32:39 29.354- 29.394
NOAA 18 26 Jul 18:12:24 18:17:50 61° 70° (ENE) 18:23:20 137.9125
HO-68 26 Jul 18:26:35 18:31:40 21° 52° (NE) 18:36:45 435.675
BEESAT 3 26 Jul 18:34:13 18:36:58 18° 113° (ESE) 18:39:43 437.485
GONETS M04 26 Jul 18:39:05 18:44:43 18° 304° (NW) 18:50:26
BEESAT 2 26 Jul 18:40:20 18:41:41 11° 109° (ESE) 18:43:02 435.950
YUBILEINY 26 Jul 18:47:44 18:49:20 10° 45° (NE) 18:50:55 435.215
DOVE 4 26 Jul 18:52:10 18:56:15 45° 70° (ENE) 19:00:36 437.250
KKS-1 26 Jul 18:53:28 18:55:32 13° 302° (WNW) 18:57:35 437.445
GOMX 1 26 Jul 18:55:18 18:59:28 78° 256° (WSW) 19:03:51 467.674
SO-50 26 Jul 18:57:38 19:00:19 15° 251° (WSW) 19:02:58 436.795
Cubesat XI-IV 26 Jul 18:59:16 19:04:34 59° 259° (W) 19:09:54 437.490
CUBESAT XI-V 26 Jul 19:00:38 19:05:11 60° 288° (WNW) 19:09:43 437.345
PCSat 26 Jul 19:03:20 19:07:02 19° 106° (ESE) 19:10:45 145.827
CANX-2 26 Jul 19:04:53 19:07:46 18° 63° (ENE) 19:10:40 2200.000
PHONESAT 2.4 26 Jul 19:07:51 19:10:25 24° 169° (S) 19:13:00 2401.200-2431.200
CINEMA 3 26 Jul 19:09:55 19:13:32 23° 63° (ENE) 19:17:16 145.822/145.860
CUTE 1.7 + AOD 2 26 Jul 19:18:04 19:21:17 21° 65° (ENE) 19:24:30 437.475
CUTE-I 26 Jul 19:23:43 19:28:39 36° 263° (W) 19:33:37 437.470
BRITE-PL 26 Jul 19:29:35 19:32:08 16° 269° (W) 19:34:44 437.365/2234.400
LilacSat-2 26 Jul 19:43:54 19:46:24 16° 269° (W) 19:48:55 437.200
NOAA 15 26 Jul 19:48:16 19:51:42 17° 270° (W) 19:55:08 137.62
NOAA 18 26 Jul 19:54:47 19:58:55 21° 268° (W) 20:03:05 137.9125
SEEDS 26 Jul 19:57:46 20:01:39 37° 70° (ENE) 20:05:34 437.485
UWE-3 26 Jul 20:01:55 20:05:01 18° 62° (ENE) 20:08:10 435.000/436.395/437.385
FUNcube-1 26 Jul 20:05:00 20:06:54 12° 58° (ENE) 20:08:47 145.935
ZACube-1 26 Jul 20:05:13 20:07:23 13° 59° (ENE) 20:09:34 437.345
BEESAT 3 26 Jul 20:10:30 20:14:19 48° 311° (NW) 20:18:10 437.485
COMPASS 1 26 Jul 20:10:57 20:14:46 36° 70° (ENE) 20:18:37 437.405
HO-68 26 Jul 20:11:14 20:18:27 87° 72° (ENE) 20:25:42 435.675
STRAND 1 26 Jul 20:11:54 20:16:51 46° 99° (E) 20:21:44 437.568
BEESAT 2 26 Jul 20:14:57 20:18:55 77° 307° (NW) 20:22:55 435.950
Cosmos 2491 26 Jul 20:15:50 20:19:22 13° 71° (ENE) 20:22:55 435.465 / 435.565
CUBEBUG 2 26 Jul 20:21:08 20:25:21 37° 68° (ENE) 20:29:42 437.445
DOVE 4 26 Jul 20:31:10 20:34:16 19° 270° (W) 20:37:29 437.250
CANX-2 26 Jul 20:39:06 20:43:16 51° 261° (W) 20:47:27 2200.000
M-CUBED/EXP-1 PRIME 26 Jul 20:39:17 20:41:37 15° 54° (NE) 20:44:02 437.505
AAUSAT CUBESAT 2 26 Jul 20:39:40 20:43:45 58° 73° (ENE) 20:47:50 437.432
PRISM 26 Jul 20:40:14 20:41:12 11° 89° (E) 20:42:09 437.425
YUBILEINY 26 Jul 20:40:32 20:49:01 47° 72° (ENE) 20:57:24 435.215
PHONESAT 2.4 26 Jul 20:43:49 20:46:30 27° 186° (S) 20:49:12 2401.200-2431.200
PCSat 26 Jul 20:44:26 20:49:51 72° 304° (NW) 20:55:18 145.827
CINEMA 3 26 Jul 20:46:05 20:50:23 43° 263° (W) 20:54:56 145.822/145.860
Oscar 11 26 Jul 20:46:13 20:50:02 30° 67° (ENE) 20:53:50 145.826/435.025
CUTE 1.7 + AOD 2 26 Jul 20:52:49 20:56:52 41° 262° (W) 21:00:57 437.475
Cosmos 2504 26 Jul 20:55:09 21:01:00 20° 58° (ENE) 21:06:33 435.465 / 435.565
AUBIESAT-1 26 Jul 21:05:04 21:08:08 22° 58° (ENE) 21:11:24 437.475
DELFI C3 26 Jul 21:09:02 21:12:08 22° 66° (ENE) 21:15:14 145.870
AO-85 26 Jul 21:11:07 21:13:44 15° 27° (NNE) 21:16:14 145.980
O/OREOS (USA 219) 26 Jul 21:12:49 21:17:08 52° 109° (ESE) 21:21:30 437.305
HUMSAT D 26 Jul 21:24:33 21:27:32 18° 63° (ENE) 21:30:30 437.325/437.525
SEEDS 26 Jul 21:34:10 21:37:29 22° 267° (W) 21:40:47 437.485
UWE-3 26 Jul 21:36:30 21:41:01 59° 260° (W) 21:45:39 435.000/436.395/437.385
FUNcube-1 26 Jul 21:37:53 21:42:25 89° 271° (W) 21:47:02 145.935
ZACube-1 26 Jul 21:38:27 21:43:00 83° 257° (WSW) 21:47:37 437.345
COMPASS 1 26 Jul 21:47:10 21:50:26 22° 267° (W) 21:53:43 437.405
STRAND 1 26 Jul 21:51:35 21:55:46 26° 297° (WNW) 21:59:56 437.568
BEESAT 3 26 Jul 21:52:02 21:52:56 11° 332° (NNW) 21:53:50 437.485
BEESAT 2 26 Jul 21:55:15 21:57:25 14° 327° (NNW) 21:59:37 435.950
CUBEBUG 2 26 Jul 21:58:10 22:02:03 27° 267° (W) 22:06:02 437.445
HO-68 26 Jul 22:02:12 22:07:03 19° 271° (W) 22:11:57 435.675
Cosmos 2491 26 Jul 22:05:48 22:14:22 66° 93° (E) 22:22:58 435.465 / 435.565
AIST 2 26 Jul 22:10:05 22:14:12 85° 125° (SE) 22:18:22 435.215
M-CUBED/EXP-1 PRIME 26 Jul 22:11:53 22:15:37 61° 254° (WSW) 22:19:42 437.505
ANTELSAT 26 Jul 22:12:47 22:14:13 11° 87° (E) 22:15:40 437.575/2403.000
PRISM 26 Jul 22:12:54 22:17:00 73° 285° (WNW) 22:21:05 437.425
AAUSAT CUBESAT 2 26 Jul 22:17:28 22:19:36 14° 270° (W) 22:21:45 437.432
PHONESAT 2.4 26 Jul 22:20:44 22:22:28 14° 202° (SSW) 22:24:12 2401.200-2431.200
Oscar 11 26 Jul 22:22:21 22:26:08 28° 265° (W) 22:29:56 145.826/435.025
PCSat 26 Jul 22:30:38 22:34:15 18° 326° (NNW) 22:37:52 145.827
ISS 26 Jul 22:32:54 22:36:06 54° 146° (SSE) 22:39:18 145.825
YUBILEINY 26 Jul 22:37:35 22:45:47 45° 273° (W) 22:53:56 435.215
AUBIESAT-1 26 Jul 22:38:48 22:42:22 37° 258° (WSW) 22:46:14 437.475
DELFI C3 26 Jul 22:43:12 22:46:49 33° 263° (W) 22:50:27 145.870
50 SAT 26 Jul 22:43:15 22:44:27 11° 61° (ENE) 22:45:38 437.505
Cosmos 2504 26 Jul 22:47:28 22:55:49 87° 82° (E) 23:03:29 435.465 / 435.565
AO-85 26 Jul 22:50:42 22:55:11 63° 51° (NE) 22:59:17 145.980
TIGRISAT 26 Jul 22:52:38 22:56:36 27° 94° (E) 23:00:29 435.000
O/OREOS (USA 219) 26 Jul 22:53:30 22:56:52 21° 309° (NW) 23:00:15 437.305
AISAT 26 Jul 22:54:56 22:58:05 20° 62° (ENE) 23:01:15 437.250
DX 1 26 Jul 22:57:27 22:59:56 15° 60° (ENE) 23:02:27 434.975-435.025
HUMSAT D 26 Jul 22:58:36 23:02:48 50° 261° (W) 23:07:01 437.325/437.525
UNISAT 6 26 Jul 23:08:31 23:12:56 41° 97° (E) 23:17:15 437.425
UKube-1 26 Jul 23:11:54 23:14:38 17° 61° (ENE) 23:17:23 .
FUNcube-1 26 Jul 23:18:51 23:19:20 10° 274° (W) 23:19:49 145.935
ESTCUBE 1 26 Jul 23:26:02 23:30:27 60° 72° (ENE) 23:34:53 437.505/2401.250
AIST 1 26 Jul 23:32:28 23:33:08 10° 63° (ENE) 23:33:50
QB50P2 26 Jul 23:40:39 23:43:13 15° 90° (E) 23:45:46 145.880/145.840
POLYITAN 1 26 Jul 23:43:15 23:45:53 16° 91° (E) 23:48:30 437.675
VELOX 1 26 Jul 23:45:06 23:49:23 56° 72° (ENE) 23:53:42 145.980
SPROUT 26 Jul 23:45:15 23:48:51 27° 66° (ENE) 23:52:28 437.525
ANTELSAT 26 Jul 23:46:54 23:51:35 84° 285° (WNW) 23:56:09 437.575/2403.000
CUBEBUG 1 26 Jul 23:47:44 23:52:00 67° 73° (ENE) 23:56:19 437.445
AIST 2 26 Jul 23:50:29 23:53:15 17° 325° (NW) 23:56:01 435.215
Cosmos 2491 27 Jul 00:04:22 00:11:52 31° 295° (WNW) 00:19:27 435.465 / 435.565
ISS 27 Jul 00:09:33 00:12:38 38° 345° (NNW) 00:15:43 145.825
50 SAT 27 Jul 00:13:57 00:17:35 64° 258° (WSW) 00:21:14 437.505
NANOSAT C BR1 27 Jul 00:25:51 00:29:54 40° 98° (E) 00:33:54 145.865
TIGRISAT 27 Jul 00:29:05 00:33:21 35° 292° (WNW) 00:37:30 435.000
AISAT 27 Jul 00:29:59 00:34:14 48° 260° (W) 00:38:31 437.250
DUCHIFAT 1 27 Jul 00:30:22 00:34:27 41° 98° (E) 00:38:29 145.980
DX 1 27 Jul 00:31:21 00:35:38 65° 258° (WSW) 00:39:58 434.975-435.025
AO-85 27 Jul 00:32:28 00:35:02 16° 251° (WSW) 00:37:29 145.980
Cosmos 2504 27 Jul 00:42:31 00:47:57 20° 284° (WNW) 00:53:08 435.465 / 435.565
TISAT 1 27 Jul 00:42:33 00:46:06 27° 66° (ENE) 00:49:41 437.305
UNISAT 6 27 Jul 00:45:39 00:49:26 25° 296° (WNW) 00:53:07 437.425
UKube-1 27 Jul 00:46:02 00:50:16 56° 259° (W) 00:54:31 .
BUGSAT 1 27 Jul 00:47:12 00:50:57 29° 96° (E) 00:54:40 437.445
QB50P1 27 Jul 00:47:49 00:52:08 73° 102° (ESE) 00:56:25 145.935-145.965
GONETS M04 27 Jul 00:49:41 00:54:23 15° 52° (NE) 00:59:04
POPSAT HIP 1 27 Jul 00:54:13 00:58:34 83° 105° (ESE) 01:02:51 437.405
ESTCUBE 1 27 Jul 01:04:58 01:07:39 15° 270° (W) 01:10:20 437.505/2401.250
AIST 1 27 Jul 01:07:03 01:11:25 88° 260° (W) 01:15:46
Oscar 19 27 Jul 01:11:46 01:12:42 10° 86° (E) 01:13:40 437.125/150
ITUPSAT 1 27 Jul 01:13:47 01:16:30 15° 58° (ENE) 01:19:12 437.325
QB50P2 27 Jul 01:15:09 01:19:23 55° 288° (WNW) 01:23:33 145.880/145.840
POLYITAN 1 27 Jul 01:17:49 01:22:02 54° 288° (WNW) 01:26:12 437.675
SPROUT 27 Jul 01:20:53 01:24:42 31° 264° (W) 01:28:33 437.525
VELOX 1 27 Jul 01:23:31 01:26:12 16° 269° (W) 01:28:55 145.980
ANTELSAT 27 Jul 01:25:51 01:27:30 12° 303° (WNW) 01:29:10 437.575/2403.000
CUBEBUG 1 27 Jul 01:26:47 01:28:46 13° 271° (W) 01:30:45 437.445
JAS-2 27 Jul 01:45:57 01:51:13 74° 103° (ESE) 01:56:53 435.910
ISS 27 Jul 01:46:39 01:49:35 30° 5° (N) 01:52:31 145.825
Cosmos 2499 27 Jul 01:48:49 01:54:38 21° 59° (ENE) 02:00:07 435.465 / 435.565
NANOSAT C BR1 27 Jul 02:02:06 02:05:24 22° 295° (WNW) 02:08:41 145.865
SWISSCUBE 27 Jul 02:04:53 02:09:27 46° 69° (ENE) 02:14:02 437.505
PCSat 27 Jul 02:05:52 02:06:26 10° 20° (NNE) 02:07:00 145.827
DUCHIFAT 1 27 Jul 02:06:40 02:09:53 21° 296° (WNW) 02:13:05 145.980
TISAT 1 27 Jul 02:17:58 02:21:40 30° 264° (W) 02:25:26 437.305
BUGSAT 1 27 Jul 02:22:35 02:26:16 29° 293° (WNW) 02:29:56 437.445
QB50P1 27 Jul 02:25:14 02:27:21 14° 300° (WNW) 02:29:28 145.935-145.965
Gurwin Techsat 1B 27 Jul 02:25:45 02:30:05 25° 93° (E) 02:34:22 435.225
BEESAT 27 Jul 02:26:07 02:30:51 66° 72° (ENE) 02:35:37 436.000
POPSAT HIP 1 27 Jul 02:32:02 02:33:42 12° 301° (WNW) 02:35:21 437.405
KKS-1 27 Jul 02:41:41 02:43:45 13° 58° (ENE) 02:45:50 437.445
ITAMSAT 1 27 Jul 02:44:30 02:46:13 11° 87° (E) 02:47:55 435.822/435.867
GONETS M04 27 Jul 02:44:35 02:53:20 63° 76° (ENE) 03:02:04
Oscar 19 27 Jul 02:47:39 02:52:51 79° 102° (ESE) 02:58:03 437.125/150
BEESAT 3 27 Jul 02:48:01 02:51:30 28° 43° (NE) 02:54:57 437.485
ITUPSAT 1 27 Jul 02:48:54 02:53:43 79° 255° (WSW) 02:58:33 437.325
BEESAT 2 27 Jul 02:53:31 02:56:36 21° 39° (NE) 02:59:40 435.950
MOZHAYETS 4 27 Jul 03:11:18 03:15:06 26° 65° (ENE) 03:18:54
STARS 27 Jul 03:20:36 03:23:20 16° 60° (ENE) 03:26:04 437.465
ISS 27 Jul 03:23:07 03:26:23 70° 25° (NNE) 03:29:38 145.825
JAS-2 27 Jul 03:32:30 03:35:50 17° 301° (WNW) 03:39:18 435.910
Cosmos 2499 27 Jul 03:40:59 03:48:59 86° 263° (W) 03:56:20 435.465 / 435.565
SWISSCUBE 27 Jul 03:43:43 03:47:28 22° 267° (W) 03:51:14 437.505
PCSat 27 Jul 03:46:53 03:51:42 31° 44° (NE) 03:56:28 145.827
CUSAT 1 27 Jul 03:57:34 04:01:17 35° 98° (E) 04:04:17 437.405
AO-7 27 Jul 03:58:54 04:06:02 30° 94° (E) 04:13:04 29.400- 29.500
Gurwin Techsat 1B 27 Jul 04:05:09 04:10:17 49° 291° (WNW) 04:15:22 435.225
BEESAT 27 Jul 04:06:13 04:09:05 16° 270° (W) 04:11:58 436.000
KKS-1 27 Jul 04:15:15 04:19:42 81° 257° (WSW) 04:24:11 437.445
DANDE 27 Jul 04:16:14 04:20:47 27° 96° (E) 04:24:26 436.750
ITAMSAT 1 27 Jul 04:21:14 04:26:28 85° 105° (ESE) 04:31:39 435.822/435.867
BEESAT 3 27 Jul 04:25:35 04:29:14 35° 242° (WSW) 04:32:51 437.485
Oscar 19 27 Jul 04:28:22 04:31:33 17° 302° (WNW) 04:34:44 437.125/150
CUBESAT XI-V 27 Jul 04:30:09 04:33:37 22° 64° (ENE) 04:37:06 437.345
BEESAT 2 27 Jul 04:30:49 04:34:45 57° 238° (WSW) 04:38:40 435.950
GONETS M04 27 Jul 04:42:09 04:49:35 32° 278° (W) 04:57:01
MOZHAYETS 4 27 Jul 04:47:46 04:52:05 39° 263° (W) 04:56:27
AIST 2 27 Jul 04:51:22 04:54:28 20° 37° (NE) 04:57:33 435.215
STARS 27 Jul 04:54:53 04:59:14 61° 259° (WSW) 05:03:37 437.465
ISS 27 Jul 05:00:03 05:02:33 20° 223° (SW) 05:05:01 145.825
HORYU 2 27 Jul 05:28:22 05:32:04 25° 94° (E) 05:35:44 437.375
PCSat 27 Jul 05:30:05 05:35:21 52° 244° (WSW) 05:40:34 145.827
Cosmos 2499 27 Jul 05:36:09 05:40:43 17° 285° (WNW) 05:45:08 435.465 / 435.565
CUSAT 1 27 Jul 05:41:25 05:43:15 13° 288° (WNW) 05:44:55 437.405
O/OREOS (USA 219) 27 Jul 05:41:29 05:44:58 21° 51° (NE) 05:48:26 437.305
AO-7 27 Jul 05:51:06 05:59:24 69° 294° (WNW) 06:07:38 29.400- 29.500
BRITE-PL 27 Jul 05:51:32 05:54:12 14° 90° (E) 05:56:56 437.365/2234.400
STRAND 1 27 Jul 05:54:17 05:56:49 14° 56° (NE) 05:59:20 437.568
DANDE 27 Jul 05:58:45 06:03:30 32° 284° (WNW) 06:07:13 436.750
ITAMSAT 1 27 Jul 06:02:14 06:05:15 16° 303° (WNW) 06:08:15 435.822/435.867
CUBESAT XI-V 27 Jul 06:06:15 06:10:43 47° 262° (W) 06:15:10 437.345
NOAA 15 27 Jul 06:19:34 06:23:28 21° 92° (E) 06:27:21 137.62
RS-15 27 Jul 06:25:30 06:35:23 36° 105° (ESE) 06:45:41 29.354- 29.394
AIST 2 27 Jul 06:29:13 06:33:23 69° 237° (WSW) 06:37:31 435.215
NOAA 18 27 Jul 06:32:44 06:36:51 21° 92° (E) 06:40:54 137.9125
DOVE 4 27 Jul 06:49:31 06:51:49 13° 87° (E) 06:54:08 437.250
GOMX 1 27 Jul 06:53:46 06:58:06 28° 94° (E) 07:02:36 467.674
HORYU 2 27 Jul 07:04:35 07:08:43 37° 292° (WNW) 07:12:48 437.375
LilacSat-2 27 Jul 07:13:12 07:16:57 45° 99° (E) 07:20:39 437.200
Cubesat XI-IV 27 Jul 07:13:56 07:19:07 46° 99° (E) 07:24:14 437.490
O/OREOS (USA 219) 27 Jul 07:20:16 07:24:40 52° 251° (WSW) 07:29:05 437.305
BRITE-PL 27 Jul 07:28:21 07:33:06 74° 284° (WNW) 07:38:14 437.365/2234.400
STRAND 1 27 Jul 07:30:03 07:35:13 85° 76° (ENE) 07:40:24 437.568
PRISM 27 Jul 07:32:02 07:33:42 12° 59° (ENE) 07:35:21 437.425
SO-50 27 Jul 07:34:30 07:36:50 13° 108° (ESE) 07:39:09 436.795
CUTE-I 27 Jul 07:37:35 07:42:57 74° 104° (ESE) 07:48:16 437.470
HO-68 27 Jul 07:38:36 07:42:06 14° 85° (E) 07:45:34 435.675
AO-7 27 Jul 07:45:18 07:50:44 20° 316° (NW) 07:56:09 29.400- 29.500
NOAA 15 27 Jul 07:58:27 08:03:37 58° 290° (WNW) 08:08:46 137.62
NOAA 18 27 Jul 08:12:26 08:17:56 62° 290° (WNW) 08:23:22 137.9125
Cosmos 2491 27 Jul 08:13:05 08:21:04 37° 68° (ENE) 08:29:03 435.465 / 435.565
CANX-2 27 Jul 08:22:04 08:25:25 23° 93° (E) 08:28:45 2200.000
DOVE 4 27 Jul 08:24:58 08:30:06 90° 293° (WNW) 08:35:24 437.250
GOMX 1 27 Jul 08:31:34 08:36:15 42° 290° (WNW) 08:41:12 467.674
RS-15 27 Jul 08:35:12 08:46:48 77° 310° (NW) 08:59:05 29.354- 29.394
CUTE 1.7 + AOD 2 27 Jul 08:35:20 08:38:57 27° 95° (E) 08:42:32 437.475
CINEMA 3 27 Jul 08:37:49 08:42:34 40° 97° (E) 08:47:16 145.822/145.860
LilacSat-2 27 Jul 08:48:27 08:50:55 16° 296° (WNW) 08:53:22 437.200
Cubesat XI-IV 27 Jul 08:54:28 08:58:57 28° 297° (WNW) 09:03:24 437.490
PRISM 27 Jul 09:04:23 09:08:27 74° 258° (WSW) 09:12:32 437.425
BRITE-PL 27 Jul 09:09:41 09:10:53 11° 302° (WNW) 09:12:06 437.365/2234.400
SO-50 27 Jul 09:11:44 09:16:38 90° 292° (WNW) 09:21:30 436.795
STRAND 1 27 Jul 09:12:37 09:15:03 13° 272° (W) 09:17:30 437.568
ANTELSAT 27 Jul 09:13:21 09:16:04 15° 59° (ENE) 09:18:47 437.575/2403.000
SEEDS 27 Jul 09:14:23 09:18:29 50° 99° (E) 09:22:31 437.485
CUTE-I 27 Jul 09:18:50 09:22:25 18° 302° (WNW) 09:25:58 437.470
HO-68 27 Jul 09:23:47 09:31:01 74° 105° (ESE) 09:38:12 435.675
UWE-3 27 Jul 09:24:12 09:28:01 25° 93° (E) 09:31:44 435.000/436.395/437.385
FUNcube-1 27 Jul 09:24:54 09:27:35 15° 89° (E) 09:30:12 145.935
ZACube-1 27 Jul 09:25:36 09:28:32 17° 90° (E) 09:31:24 437.345
COMPASS 1 27 Jul 09:26:22 09:30:23 47° 99° (E) 09:34:22 437.405
Cosmos 2504 27 Jul 09:38:58 09:43:38 16° 73° (ENE) 09:48:16 435.465 / 435.565
YUBILEINY 27 Jul 09:44:30 09:52:46 48° 88° (E) 10:01:05 435.215
CUBEBUG 2 27 Jul 09:45:37 09:50:19 58° 100° (E) 09:54:53 437.445
TIGRISAT 27 Jul 09:53:17 09:57:25 33° 67° (ENE) 10:01:36 435.000
AAUSAT CUBESAT 2 27 Jul 09:54:42 09:58:50 79° 102° (ESE) 10:02:56 437.432
NOAA 18 27 Jul 09:55:48 09:57:31 11° 309° (NW) 09:59:13 137.9125
CANX-2 27 Jul 09:57:31 10:01:23 35° 291° (WNW) 10:05:13 2200.000
DOVE 4 27 Jul 10:04:22 10:07:07 15° 301° (WNW) 10:09:56 437.250
Oscar 11 27 Jul 10:06:24 10:10:31 42° 98° (E) 10:14:36 145.826/435.025
UNISAT 6 27 Jul 10:09:14 10:13:42 48° 71° (ENE) 10:18:14 437.425
Cosmos 2491 27 Jul 10:09:50 10:18:16 55° 270° (W) 10:26:43 435.465 / 435.565
CUTE 1.7 + AOD 2 27 Jul 10:11:05 10:14:47 30° 292° (WNW) 10:18:26 437.475
CINEMA 3 27 Jul 10:15:14 10:19:31 29° 294° (WNW) 10:23:45 145.822/145.860
AUBIESAT-1 27 Jul 10:16:06 10:18:16 13° 94° (E) 10:20:26 437.475
POPSAT HIP 1 27 Jul 10:17:16 10:17:55 10° 57° (ENE) 10:18:33 437.405
DELFI C3 27 Jul 10:18:16 10:21:32 24° 94° (E) 10:24:45 145.870
QB50P2 27 Jul 10:35:49 10:38:35 17° 62° (ENE) 10:41:22 145.880/145.840
POLYITAN 1 27 Jul 10:38:23 10:41:12 17° 62° (ENE) 10:44:02 437.675
HUMSAT D 27 Jul 10:40:07 10:43:23 21° 93° (E) 10:46:36 437.325/437.525
ANTELSAT 27 Jul 10:47:32 10:52:10 74° 258° (WSW) 10:56:54 437.575/2403.000
RS-15 27 Jul 10:50:56 11:01:38 36° 340° (NNW) 11:12:45 29.354- 29.394
SEEDS 27 Jul 10:51:05 10:53:48 17° 297° (WNW) 10:56:31 437.485
SO-50 27 Jul 10:54:10 10:57:47 20° 326° (NW) 11:01:21 436.795
FUNcube-1 27 Jul 10:59:47 11:04:14 59° 287° (WNW) 11:08:33 145.935
UWE-3 27 Jul 11:00:17 11:04:36 38° 291° (WNW) 11:08:47 435.000/436.395/437.385
ZACube-1 27 Jul 11:00:44 11:05:11 54° 287° (WNW) 11:09:28 437.345
COMPASS 1 27 Jul 11:02:50 11:05:36 18° 297° (WNW) 11:08:22 437.405
HO-68 27 Jul 11:12:22 11:18:06 27° 305° (NW) 11:23:49 435.675
ESTCUBE 1 27 Jul 11:19:05 11:19:36 10° 87° (E) 11:20:07 437.505/2401.250
NANOSAT C BR1 27 Jul 11:20:08 11:24:06 40° 70° (ENE) 11:28:06 145.865
M-CUBED/EXP-1 PRIME 27 Jul 11:22:24 11:27:05 69° 107° (ESE) 11:31:47 437.505
CUBEBUG 2 27 Jul 11:23:11 11:26:29 19° 298° (WNW) 11:29:44 437.445
DUCHIFAT 1 27 Jul 11:24:23 11:28:22 42° 70° (ENE) 11:32:23 145.980
Cosmos 2504 27 Jul 11:26:38 11:35:25 71° 94° (E) 11:44:10 435.465 / 435.565
TIGRISAT 27 Jul 11:29:59 11:34:04 30° 265° (W) 11:38:14 435.000
AAUSAT CUBESAT 2 27 Jul 11:32:17 11:33:43 12° 300° (WNW) 11:35:08 437.432
CUBEBUG 1 27 Jul 11:36:36 11:37:20 10° 87° (E) 11:38:03 437.445
BUGSAT 1 27 Jul 11:39:21 11:42:51 28° 67° (ENE) 11:46:24 437.445
YUBILEINY 27 Jul 11:41:25 11:49:40 43° 290° (WNW) 11:58:01 435.215
QB50P1 27 Jul 11:42:16 11:46:30 73° 75° (ENE) 11:50:47 145.935-145.965
Oscar 11 27 Jul 11:43:08 11:46:23 21° 296° (WNW) 11:49:37 145.826/435.025
UNISAT 6 27 Jul 11:47:12 11:50:40 21° 268° (W) 11:54:11 437.425
AUBIESAT-1 27 Jul 11:48:33 11:53:14 81° 289° (WNW) 11:57:51 437.475
POPSAT HIP 1 27 Jul 11:48:42 11:52:57 84° 76° (ENE) 11:57:15 437.405
DELFI C3 27 Jul 11:52:57 11:56:23 29° 292° (WNW) 11:59:48 145.870
JAS-2 27 Jul 12:01:00 12:06:31 42° 68° (ENE) 12:11:34 435.910
QB50P2 27 Jul 12:09:48 12:13:58 54° 260° (W) 12:18:12 145.880/145.840
Cosmos 2491 27 Jul 12:12:08 12:12:58 10° 292° (WNW) 12:13:49 435.465 / 435.565
POLYITAN 1 27 Jul 12:12:27 12:16:37 53° 260° (W) 12:20:50 437.675
HUMSAT D 27 Jul 12:15:15 12:19:08 37° 291° (WNW) 12:22:58 437.325/437.525
AISAT 27 Jul 12:17:47 12:21:31 26° 95° (E) 12:25:16 437.250
DX 1 27 Jul 12:17:50 12:20:51 18° 92° (E) 12:23:51 434.975-435.025
